185  
ASPQ40 PGUM 231412  
RWRPQ  
WEATHER ROUNDUP FOR THE MARIANAS AND MICRONESIA  
NATIONAL WEATHER SERVICE TIYAN GU  
1200 AM CHST FRI NOV 24 2017  
 
GUZ001>004-231500-  
MARIANA ISLANDS-  
 
CITY SKY/WX TMP DP RH WIND PRES REMARKS
 
GUAM AIRPORT PTCLDY 81 73 78 E9 29.88S  
ANDERSEN AFB PTCLDY 79 72 78 E12 29.89S  
ROTA AIRPORT NOT AVBL  
TINIAN AP NOT AVBL  
SAIPAN AP CLOUDY 81 75 83 E13 29.88S  
 

 
 
PMZ161-231500-  
REPUBLIC OF PALAU-  
 
CITY SKY/WX TMP DP RH WIND PRES REMARKS
 
KOROR AP CLOUDY 82 77 83 NE5 29.77F HX 91  
KOROR WSO MOCLDY 82 79 89 CALM 29.77F HX 93  
 

 
 
PMZ171>174-231500-  
FEDERATED STATES OF MICRONESIA-  
 
CITY SKY/WX TMP DP RH WIND PRES REMARKS
 
YAP AIRPORT MOCLDY 79 77 94 CALM 29.76F  
CHUUK AP CLOUDY 82 81 94 NE12 29.75R HX 95  
POHNPEI AP NOT AVBL  
POHNPEI WSO MOCLDY 82 79 89 E5 29.78S HX 93  
KOSRAE AP NOT AVBL  
 

 
 
PMZ181-231500-  
REPUBLIC OF THE MARSHALL ISLANDS-  
 
CITY SKY/WX TMP DP RH WIND PRES REMARKS
 
KWAJALEIN AP CLEAR 82 77 83 E10 29.75S HX 91  
MAJURO AP NOT AVBL  
MAJURO WSO PTCLDY 84 77 79 E7 29.72F HX 94  
 

 
 
 
 
CLICK HERE TO GO TO PREVIOUS BULLETINS.

The Nexlab GU Page Main Text Page